Wind_Speed
6 4 2 5 6 6 9 5 3 10 10 12 10 11 13 13 7 2 13 11 21 22 22 24 23 23 22 21 20 18 17 15 14 13 12 11 10 9 10 11 12 12 11 11 10 12 13 12 13
7 5 4 2 7 9 7 2 9 13 17 13 13 12 11 10 8 12 12 13 20 22 22 22 23 23 22 20 18 16 15 14 13 12 11 10 10 10 11 12 11 10 9 9 9 11 11 12 14
6 6 4 4 7 11 4 5 14 16 13 11 6 7 4 4 3 11 5 18 17 18 21 22 23 22 21 19 16 15 15 13 12 11 11 10 10 11 11 11 10 9 9 9 10 12 12 13 16
7 6 4 8 10 1 2 12 16 13 10 6 15 7 3 4 2 3 13 19 19 18 19 22 23 21 19 18 16 15 14 12 11 11 10 9 10 10 10 10 10 10 11 12 13 14 13 14 16
7 3 7 10 6 2 5 15 13 5 10 9 9 12 9 7 9 15 12 20 20 19 17 22 20 18 18 17 15 14 12 11 11 10 9 9 10 10 10 11 11 12 13 14 14 13 13 13 14
6 4 6 12 4 3 2 13 7 4 11 7 6 13 7 6 11 13 17 17 16 17 15 16 18 17 16 14 13 12 10 10 8 8 7 8 9 10 11 11 11 11 13 13 12 12 11 11 12
9 7 8 2 3 7 8 13 8 8 13 3 8 8 3 7 13 16 19 17 16 17 16 16 15 14 13 12 10 9 8 7 6 5 6 8 9 9 9 9 9 8 9 9 8 8 7 8 9
4 5 5 3 7 14 14 12 16 8 16 5 4 5 6 13 18 17 16 17 15 13 14 14 14 13 11 9 9 7 6 5 4 4 6 6 7 7 6 7 4 5 4 4 3 3 3 4 6
3 6 7 9 13 13 15 6 5 3 10 5 3 2 14 22 19 19 15 15 14 13 12 12 12 11 10 8 6 5 4 4 3 3 4 4 3 2 1 2 2 2 1 2 3 4 6 7 10
7 6 3 9 15 12 1 4 15 8 13 5 7 12 22 21 20 19 18 15 14 13 12 11 10 10 9 8 7 6 5 3 3 2 2 1 1 1 2 2 2 1 3 4 5 4 6 9 10
6 5 8 12 10 13 15 16 8 12 11 6 14 20 18 20 17 15 14 15 15 13 11 10 10 10 10 8 7 6 6 4 3 3 2 2 4 5 5 3 3 3 4 4 5 6 7 10 10
8 2 3 12 12 11 12 7 7 5 9 3 19 22 19 16 15 16 15 14 13 13 11 9 9 9 9 9 7 7 6 5 4 2 3 3 4 6 7 5 4 3 3 5 6 7 9 10 10
11 2 3 5 11 13 9 5 8 10 7 15 20 18 17 15 15 13 13 12 11 11 10 11 10 9 8 9 8 8 6 4 3 1 2 2 3 6 9 7 5 4 4 5 8 9 11 11 11
1 3 1 1 7 7 9 6 6 10 3 15 18 16 15 14 14 12 10 10 10 9 11 12 12 12 11 10 10 9 8 10 10 8 10 5 3 11 12 6 5 6 6 7 9 10 11 12 11
9 9 10 8 10 6 13 9 7 4 4 14 14 11 10 10 10 9 8 8 10 11 13 14 15 14 14 15 14 12 16 16 9 10 11 8 8 8 6 5 5 6 6 7 9 10 10 11 11
7 7 8 5 9 5 6 12 8 2 8 11 12 11 10 8 8 5 5 5 9 10 13 15 15 16 17 20 18 5 11 13 11 4 7 8 6 5 3 3 3 4 7 8 9 9 12 12 13
7 8 11 9 4 8 7 11 7 2 9 10 10 10 10 9 7 5 4 6 8 11 14 15 15 16 16 19 15 13 11 9 6 6 4 3 1 1 0 1 3 6 7 7 8 9 10 13 14
9 8 13 13 4 7 7 7 6 4 10 10 10 9 9 8 5 5 5 7 9 12 14 16 17 17 14 11 7 8 10 8 6 4 3 4 2 3 3 4 5 6 7 9 10 12 14 14 14
5 7 12 8 4 5 5 7 5 6 8 10 10 10 10 8 7 8 8 10 12 13 15 17 16 15 12 11 12 12 10 6 4 4 5 4 4 4 4 4 7 9 11 12 12 14 17 16 15
6 10 8 6 3 4 9 7 6 5 5 6 9 9 9 9 9 10 12 13 13 15 14 14 14 14 12 12 10 8 8 5 6 5 4 4 5 5 6 7 9 11 13 15 13 12 13 15 12
3 6 10 5 7 2 10 7 8 4 5 6 5 6 8 10 11 12 14 14 15 16 17 17 17 15 11 9 7 7 8 7 4 2 2 3 5 6 8 9 10 12 14 16 12 9 9 13 14
6 3 9 12 13 8 8 8 10 8 7 9 10 11 12 14 13 13 15 17 18 16 16 17 14 11 8 6 7 5 3 2 3 2 1 3 6 9 11 12 13 14 15 13 10 8 8 9 13
3 7 10 8 7 5 11 8 9 9 11 14 13 13 13 13 13 14 16 16 15 15 14 13 13 12 11 11 10 8 7 6 4 3 6 10 12 14 15 16 16 16 14 10 7 7 7 11 12
11 12 8 4 3 6 3 8 8 10 17 16 16 14 15 14 14 15 15 14 14 13 13 13 14 15 14 14 13 13 10 7 6 8 11 13 17 18 18 19 18 16 12 9 7 6 8 12 12
7 10 5 6 5 7 1 6 12 4 5 18 19 18 17 16 15 13 16 16 15 13 14 15 15 15 12 13 12 11 10 8 8 11 12 16 17 19 20 19 17 14 10 8 7 6 10 9 9
9 7 4 5 6 6 3 7 3 1 6 13 18 18 18 16 14 13 14 14 15 16 15 15 14 14 12 11 11 10 9 8 7 9 12 14 16 18 19 18 14 10 8 6 7 11 8 8 9
5 7 3 2 0 4 6 6 10 4 8 13 20 19 19 17 15 13 14 15 17 17 15 14 14 13 11 9 8 8 7 7 7 10 13 15 16 18 18 15 10 8 6 9 11 10 9 8 10
3 8 3 3 3 5 3 7 6 7 11 16 20 20 19 17 15 13 15 16 16 16 15 14 13 11 9 7 6 4 4 6 7 11 14 16 17 18 17 14 11 9 9 11 12 12 9 9 12
4 4 1 1 2 3 3 1 3 1 9 16 20 20 19 17 16 14 16 17 17 16 15 14 12 10 10 6 4 3 3 5 7 10 14 15 17 17 16 14 13 12 15 16 19 15 11 12 13
3 4 7 4 4 0 2 4 3 1 3 10 16 18 17 16 15 15 18 19 19 17 15 13 11 9 7 6 5 1 3 4 7 10 14 16 17 17 15 14 12 14 18 22 17 12 12 14 16
Wind_Direction
187 176 214 240 240 237 259 223 77 142 94 75 56 63 75 21 353 32 141 139 149 150 155 159 165 160 152 148 144 140 136 134 129 122 121 117 110 105 100 95 88 79 72 66 61 57 54 49 46
167 164 198 257 256 242 240 138 205 100 111 98 63 44 42 50 54 114 134 147 151 149 157 158 166 162 156 153 146 143 139 136 129 127 124 119 112 109 103 96 91 83 74 67 60 60 56 50 44
182 200 234 235 246 257 295 173 116 127 128 116 98 47 40 340 46 141 141 148 154 153 159 158 166 166 161 151 151 148 147 139 135 133 131 121 115 111 106 100 91 87 82 76 70 67 65 56 47
183 190 218 242 242 262 330 133 142 128 131 127 132 103 137 250 62 220 173 148 157 155 156 163 167 168 161 155 159 153 147 142 141 139 132 120 113 110 105 99 94 87 88 82 80 81 69 57 51
198 240 234 240 261 226 201 152 168 94 108 118 182 132 133 186 225 165 161 164 168 153 154 159 168 165 162 160 158 151 148 147 146 142 131 122 120 115 110 106 102 93 89 86 83 78 69 62 54
194 263 226 232 166 146 207 155 199 66 95 124 151 142 146 155 168 160 150 149 145 151 154 158 165 167 164 163 156 153 149 146 140 129 129 126 119 112 115 115 107 97 86 83 79 72 63 57 50
252 219 248 297 124 99 118 82 64 55 303 229 131 137 97 171 155 154 150 144 150 146 150 153 160 165 165 157 154 147 143 139 131 130 119 125 117 118 116 112 113 103 86 78 71 68 58 45 34
250 257 204 192 119 91 110 114 106 131 264 109 191 161 165 163 152 147 146 142 137 141 147 152 157 158 151 148 151 141 142 135 135 117 125 129 121 119 116 99 107 104 98 84 59 16 19 23 5
241 230 208 139 118 125 133 131 140 284 263 181 111 112 137 151 150 148 145 137 142 150 149 150 151 150 145 148 147 132 136 147 124 103 122 108 141 130 118 194 162 129 78 359 320 306 307 331 346
235 243 175 138 131 134 23 228 159 200 188 165 93 119 140 149 152 150 153 147 145 153 154 152 147 138 135 137 135 135 134 143 129 122 102 110 319 299 284 300 295 303 304 322 326 343 357 359 339
186 262 129 155 127 141 156 208 197 196 184 165 151 143 147 153 156 155 154 160 163 161 157 153 154 155 143 143 141 132 131 127 104 70 49 324 314 310 294 287 300 309 320 334 339 345 346 343 336
230 212 102 173 182 170 190 170 183 195 41 121 146 145 149 156 161 164 166 162 162 160 161 156 148 140 149 139 139 136 132 117 103 69 26 326 324 315 304 291 292 308 321 327 328 327 343 337 332
237 205 190 173 187 193 153 162 125 53 81 119 140 152 151 157 162 161 166 161 154 151 151 145 147 149 146 139 136 126 111 96 64 96 202 204 344 347 313 291 290 291 309 321 319 325 329 324 321
150 200 114 159 119 127 180 115 163 57 106 129 147 155 156 161 160 159 164 163 158 154 152 153 151 150 145 138 127 106 71 25 350 331 333 273 228 282 285 277 291 297 310 321 321 326 322 313 313
145 127 127 134 159 129 135 123 58 11 158 141 153 148 155 154 160 167 164 168 168 169 162 158 155 146 141 135 119 61 43 341 326 323 319 319 218 247 235 273 292 298 330 340 330 329 316 310 308
172 182 145 97 167 150 232 121 61 38 159 159 153 152 149 143 151 149 169 184 182 177 168 169 162 154 149 138 133 91 284 271 304 10 90 104 160 215 246 267 306 342 346 340 333 325 317 313 308
186 177 142 131 32 155 258 126 59 131 167 160 163 162 156 148 151 149 143 161 175 181 174 167 162 163 156 155 161 207 247 236 175 157 131 154 128 63 51 10 9 354 340 338 332 325 327 314 302
172 141 168 153 91 182 137 104 103 139 172 171 165 169 169 166 147 145 149 141 146 155 162 164 158 161 165 178 193 174 153 142 132 117 99 94 75 69 42 18 10 349 332 327 329 323 317 307 302
129 140 142 120 102 130 138 135 132 146 171 179 178 178 175 170 141 133 136 138 140 146 152 161 161 170 171 170 153 150 150 141 109 110 94 72 66 50 36 355 345 337 325 320 315 311 306 305 309
145 158 141 119 128 236 170 133 127 154 162 193 186 187 177 159 145 137 137 136 139 139 146 152 155 158 158 151 144 151 155 152 144 130 110 84 50 19 354 343 330 323 318 312 302 303 303 298 311
138 195 168 184 160 202 184 176 172 137 151 153 173 159 168 161 145 135 132 131 134 138 142 142 137 136 135 139 138 131 133 135 146 120 91 45 21 356 335 324 321 319 312 307 293 289 299 306 305
182 198 149 154 182 199 214 220 186 173 161 169 157 153 142 138 135 134 137 136 133 126 128 131 130 125 117 128 118 105 72 98 79 86 38 345 346 337 326 314 308 309 306 297 288 287 300 305 312
67 164 145 163 203 207 194 253 115 178 192 180 168 160 155 151 150 145 139 134 131 130 132 132 128 120 114 107 104 99 93 92 77 18 335 322 319 319 318 312 302 300 295 280 261 269 292 303 310
142 135 129 159 209 240 233 251 188 186 214 183 177 173 164 159 153 148 144 145 142 140 134 133 125 115 111 102 92 90 85 62 21 352 336 328 321 316 313 311 303 294 280 258 256 274 305 311 308
224 181 181 224 210 249 92 249 262 221 202 187 180 172 168 163 160 158 162 161 153 144 138 130 122 113 104 96 93 86 77 53 13 352 341 332 328 324 320 314 302 283 265 250 269 288 298 281 288
198 237 228 239 224 260 175 248 258 130 181 191 181 174 170 171 168 169 162 160 151 149 143 133 124 118 110 100 90 74 60 36 17 357 350 335 329 324 320 313 299 266 246 249 279 286 288 281 283
159 218 46 148 51 272 255 239 247 192 198 194 183 177 180 180 175 165 160 155 153 149 143 136 125 116 109 102 92 77 59 46 20 1 351 338 332 328 326 318 298 256 249 290 291 286 279 277 292
286 126 182 211 234 243 204 272 262 183 186 190 187 188 187 183 178 168 162 157 153 146 140 134 128 126 127 123 113 105 73 42 15 357 345 338 334 332 325 311 285 262 267 290 304 287 272 282 294
152 189 73 85 294 280 295 250 52 290 194 195 197 196 191 187 183 174 167 160 156 153 150 147 147 148 150 148 158 137 76 25 360 343 338 333 329 326 319 307 289 265 286 304 295 274 271 277 289
272 205 196 237 180 167 324 290 145 180 236 207 204 200 197 192 185 177 170 166 165 167 165 166 168 169 159 175 189 169 21 341 326 329 331 329 324 320 314 305 288 277 288 294 291 262 275 281 294
Height
805 805 807 805 807 793 789 786 777 792 798 794 794 794 803 803 804 816 815 818 821 826 832 836 840 842 843 846 846 848 850 852 853 854 855 855 856 855 856 855 855 855 858 855 856 854 853 854 851
806 806 806 797 804 797 783 779 784 788 793 795 803 802 805 814 809 813 818 821 824 827 833 837 841 844 844 847 848 851 853 855 856 857 857 857 857 857 857 856 858 858 859 858 858 855 855 856 854
807 805 796 794 791 796 786 780 784 790 790 792 808 811 817 821 815 815 818 820 826 830 834 836 840 844 847 848 851 852 854 856 857 858 860 859 858 858 859 859 859 859 859 858 858 856 857 857 855
806 802 796 799 791 784 784 780 785 788 788 790 805 820 817 817 816 817 821 817 826 832 835 836 841 845 850 849 853 852 855 857 859 860 861 860 861 861 861 861 861 861 860 859 857 857 858 858 855
801 793 794 796 789 786 781 777 780 786 786 794 796 811 816 820 822 815 818 814 818 831 836 839 844 849 851 851 853 854 857 859 861 861 863 862 863 862 862 863 863 864 862 860 860 860 859 858 858
795 789 796 794 788 784 779 776 783 789 788 796 796 803 812 821 821 822 820 823 827 834 838 841 846 850 852 854 855 856 860 862 864 864 866 865 865 865 864 865 864 865 864 862 861 862 862 860 859
790 789 786 788 790 790 789 787 801 808 804 800 796 808 819 821 821 822 823 826 831 835 839 843 849 852 854 856 859 860 863 864 865 868 868 868 867 869 868 867 866 866 865 864 865 863 863 862 860
787 786 788 785 792 802 791 796 796 812 807 796 797 806 821 818 821 825 828 829 832 838 842 846 850 854 855 859 861 862 864 866 870 869 869 870 869 871 871 868 869 867 866 865 864 865 863 861 861
789 791 786 789 792 802 796 801 799 803 801 799 802 801 807 817 823 825 830 833 837 842 845 849 852 854 857 861 861 863 866 869 870 871 870 873 873 872 872 870 869 867 866 865 865 864 864 861 859
788 787 780 774 783 794 795 792 808 807 801 806 803 807 816 819 824 827 831 836 838 843 847 850 852 854 858 862 865 865 868 872 871 873 873 874 874 873 873 871 870 867 867 866 865 862 862 860 860
784 783 778 778 779 780 788 788 786 793 798 795 802 807 817 820 826 831 836 838 839 844 848 851 853 854 858 861 864 866 868 871 871 872 872 874 875 874 874 871 870 870 868 867 866 863 862 861 860
789 779 782 780 779 781 783 784 789 784 790 789 798 809 818 823 828 831 834 835 839 845 849 851 853 856 859 860 865 867 868 870 870 871 872 874 874 874 874 872 871 869 868 867 865 863 861 861 859
787 779 782 782 780 780 785 786 787 796 793 794 803 812 817 824 826 829 833 836 840 843 848 850 854 858 861 862 865 868 869 871 870 869 868 869 871 872 875 873 871 869 867 866 864 862 860 860 858
778 780 781 781 783 787 788 793 787 802 798 800 807 811 816 821 824 830 833 837 840 843 847 851 854 857 861 863 866 868 872 870 871 870 870 869 865 869 875 873 871 870 867 865 863 861 860 859 858
780 787 785 786 785 789 783 799 807 807 804 804 807 810 815 820 824 827 831 836 840 843 846 850 854 855 860 861 864 869 866 867 868 868 867 866 867 871 872 871 870 869 866 864 862 861 860 858 856
784 781 791 792 786 792 792 806 808 807 805 806 809 814 818 823 826 831 834 835 839 841 845 849 851 854 858 859 859 865 867 868 866 867 865 866 868 869 869 869 869 867 865 864 862 861 859 857 856
788 791 790 797 790 789 788 801 809 808 806 808 811 814 818 825 829 832 833 834 836 839 844 847 851 855 858 858 859 861 865 869 866 866 866 867 869 869 870 869 868 866 865 864 863 861 859 857 855
792 792 787 794 799 790 794 805 808 810 808 810 811 814 818 821 828 832 833 834 836 838 843 847 850 853 855 858 860 862 865 867 868 868 869 870 871 870 869 868 868 867 865 863 862 861 858 857 854
777 782 790 795 803 799 803 805 809 811 811 813 812 814 817 821 829 832 834 835 837 840 843 847 850 853 856 859 860 862 864 866 867 870 870 870 870 870 869 868 867 865 864 863 861 859 857 854 852
780 787 796 806 807 800 802 808 810 811 812 810 811 812 816 823 826 831 833 835 838 840 844 848 850 853 856 858 859 860 863 866 867 868 869 870 870 869 868 867 866 864 863 861 860 857 855 852 851
789 786 797 794 805 801 799 807 809 815 814 816 814 813 816 819 824 829 833 836 838 841 844 847 850 854 857 858 860 862 864 866 867 869 869 869 869 868 867 866 865 863 861 859 858 856 854 851 849
793 790 791 800 799 804 800 802 805 810 814 814 816 816 818 821 826 830 834 837 840 844 847 850 853 856 858 859 860 861 862 863 867 868 869 869 868 867 866 864 862 860 858 857 855 855 853 851 848
793 791 791 794 793 799 803 804 799 806 811 811 814 816 819 823 827 831 835 839 844 847 850 853 855 856 859 859 860 861 864 866 868 869 869 868 867 865 863 862 860 857 855 853 853 852 851 850 848
793 794 795 795 797 810 793 800 786 799 795 803 810 815 819 824 828 833 838 843 847 850 853 855 856 858 859 860 861 863 865 867 868 868 867 866 864 862 860 858 857 854 852 852 851 850 850 849 847
791 791 807 813 813 813 806 806 785 781 787 790 803 811 818 824 828 834 840 843 848 852 855 857 858 860 862 862 863 864 864 866 867 868 866 865 862 860 858 856 853 851 851 850 850 849 847 847 846
790 789 803 826 821 801 809 802 781 786 785 787 797 806 814 821 827 832 837 843 848 852 855 857 858 861 863 863 864 865 865 865 865 866 865 865 862 859 856 853 850 849 849 849 848 846 845 845 844
797 801 795 813 826 816 793 785 782 790 792 791 796 803 811 817 824 830 838 842 847 851 854 856 858 860 863 864 864 864 865 864 865 865 864 863 860 857 853 851 849 848 847 847 844 842 842 842 842
789 793 806 805 826 823 793 796 786 791 793 792 794 801 807 813 822 830 837 842 846 849 853 855 856 859 861 862 862 863 863 863 863 863 862 860 857 854 851 848 847 846 845 844 841 840 839 840 839
799 797 805 800 812 812 812 787 780 785 785 791 793 798 802 810 819 828 835 840 844 848 851 853 855 857 858 860 862 860 859 860 860 860 859 857 854 851 848 845 843 843 842 840 838 837 836 837 835
788 789 792 803 815 820 820 795 786 788 787 785 789 795 799 810 818 826 832 837 841 845 848 851 853 854 855 857 858 857 856 857 857 857 855 853 851 848 845 842 841 840 838 837 834 833 833 832 831